DW2913 Weather Reports


Display with metric or nautical units.
time (UTC)temp
F
wind
direction
speed
MPH
gust
MPH
rain 1hr
in
rain 24hr
in
rain mn
in
humidity
%
barometer
mb
20180226014022 9 58 1.0 5.0 0.00 0.00 0.00 80 1022.6
20180226013522 9 58 2.0 5.0 0.00 0.00 0.00 80 1022.7
20180226013023 9 68 1.0 5.0 0.00 0.00 0.00 80 1022.6
20180226012520 9 70 1.0 5.0 0.00 0.00 0.00 81 1022.9
20180226012021 9 54 1.0 5.0 0.00 0.00 0.00 81 1022.9
20180226011521 9 54 2.0 5.0 0.00 0.00 0.00 81 1022.9
20180226011021 9 57 2.0 5.0 0.00 0.00 0.00 81 1023.0
20180226010525 9 55 1.0 5.0 0.00 0.00 0.00 81 1023.0
20180226010023 9 51 1.0 2.0 0.00 0.00 0.00 81 1023.0
20180226005521 9 44 0.0 4.0 0.00 0.00 0.00 81 1023.0
20180226005022 9 43 0.0 4.0 0.00 0.00 0.00 81 1023.0
20180226004524 9 42 0.0 4.0 0.00 0.00 0.00 82 1023.0
20180226004021 10 34 0.0 2.0 0.00 0.00 0.00 82 1023.0
20180226003520 10 31 0.0 2.0 0.00 0.00 0.00 81 1023.0
20180226003024 10 30 0.0 2.0 0.00 0.00 0.00 81 1023.2
20180226002522 10 30 0.0 2.0 0.00 0.00 0.00 81 1023.0
20180226002021 10 28 0.0 0.0 0.00 0.00 0.00 81 1023.2
20180226001521 10 26 0.0 5.0 0.00 0.00 0.00 81 1023.3
20180226001021 11 26 0.0 5.0 0.00 0.00 0.00 81 1023.2
20180226000524 11 26 0.0 5.0 0.00 0.00 0.00 81 1023.3
20180226000023 11 61 0.0 4.0 0.00 0.00 0.00 81 1023.2
20180225235520 11 61 0.0 4.0 0.00 0.00 0.00 81 1023.2
20180225235021 11 61 0.0 4.0 0.00 0.00 0.00 81 1023.3
20180225234522 11 61 0.0 4.0 0.00 0.00 0.00 81 1023.2
20180225234021 11 61 0.0 4.0 0.00 0.00 0.00 81 1023.3
20180225233526 11 63 1.0 4.0 0.00 0.00 0.00 81 1023.3
20180225233025 11 63 0.0 4.0 0.00 0.00 0.00 80 1023.2
20180225232525 11 59 0.0 0.0 0.00 0.00 0.00 80 1023.4
20180225232023 11 60 0.0 0.0 0.00 0.00 0.00 80 1023.3
20180225231525 11 60 0.0 0.0 0.00 0.00 0.00 80 1023.3
20180225231021 11 60 0.0 0.0 0.00 0.00 0.00 79 1023.3
20180225230527 11 60 0.0 4.0 0.00 0.00 0.00 79 1023.2
20180225230024 11 60 0.0 4.0 0.00 0.00 0.00 79 1023.3
20180225225521 11 60 0.0 4.0 0.00 0.00 0.00 79 1023.2
20180225225022 12 60 1.0 4.0 0.00 0.00 0.00 78 1023.3
20180225224523 12 60 0.0 4.0 0.00 0.00 0.00 78 1023.2
20180225224022 12 60 1.0 4.0 0.00 0.00 0.00 78 1023.2
20180225223522 12 60 1.0 4.0 0.00 0.00 0.00 77 1023.4
20180225223023 12 60 0.0 3.0 0.00 0.00 0.00 77 1023.3
20180225222522 12 60 0.0 3.0 0.00 0.00 0.00 77 1023.3
20180225222022 12 60 0.0 5.0 0.00 0.00 0.00 77 1023.3
20180225221522 12 60 0.0 5.0 0.00 0.00 0.00 77 1023.3
20180225221021 12 60 1.0 5.0 0.00 0.00 0.00 76 1023.4
20180225220524 12 60 1.0 5.0 0.00 0.00 0.00 76 1023.3
20180225220024 12 60 1.0 5.0 0.00 0.00 0.00 76 1023.4
20180225215523 12 53 2.0 5.0 0.00 0.00 0.00 76 1023.4
20180225215021 12 53 2.0 5.0 0.00 0.00 0.00 75 1023.5
20180225214524 12 52 1.0 5.0 0.00 0.00 0.00 75 1023.3
20180225214021 12 50 1.0 6.0 0.00 0.00 0.00 75 1023.4
20180225213523 13 50 1.0 6.0 0.00 0.00 0.00 75 1023.4
20180225213024 13 49 1.0 6.0 0.00 0.00 0.00 75 1023.4
20180225212524 13 44 1.0 6.0 0.00 0.00 0.00 75 1023.4
20180225212022 13 67 0.0 4.0 0.00 0.00 0.00 75 1023.4
20180225211522 13 67 0.0 3.0 0.00 0.00 0.00 75 1023.3
20180225211022 13 67 0.0 3.0 0.00 0.00 0.00 75 1023.4
20180225210525 13 67 0.0 3.0 0.00 0.00 0.00 75 1023.4
20180225210025 13 67 0.0 3.0 0.00 0.00 0.00 74 1023.3
20180225205530 13 67 0.0 3.0 0.00 0.00 0.00 74 1023.3
20180225205029 13 67 0.0 3.0 0.00 0.00 0.00 74 1023.4
20180225204528 13 67 0.0 3.0 0.00 0.00 0.00 74 1023.4
20180225204025 13 67 1.0 3.0 0.00 0.00 0.00 74 1023.4
20180225203523 14 67 0.0 3.0 0.00 0.00 0.00 73 1023.4
20180225203024 14 67 0.0 4.0 0.00 0.00 0.00 73 1023.3
20180225202521 14 67 0.0 4.0 0.00 0.00 0.00 72 1023.4
20180225202022 14 67 1.0 4.0 0.00 0.00 0.00 72 1023.4
20180225201524 14 67 1.0 4.0 0.00 0.00 0.00 72 1023.5
20180225201021 14 67 0.0 4.0 0.00 0.00 0.00 72 1023.5
20180225200524 14 67 0.0 4.0 0.00 0.00 0.00 72 1023.5
20180225200024 15 67 1.0 4.0 0.00 0.00 0.00 72 1023.4
20180225195520 15 67 1.0 3.0 0.00 0.00 0.00 72 1023.6
20180225195021 15 67 0.0 3.0 0.00 0.00 0.00 72 1023.6
20180225194524 15 67 0.0 3.0 0.00 0.00 0.00 72 1023.5
20180225194021 15 69 0.0 0.0 0.00 0.00 0.00 72 1023.4
20180225193523 15 69 0.0 0.0 0.00 0.00 0.00 72 1023.4
20180225193024 15 69 0.0 0.0 0.00 0.00 0.00 71 1023.4
20180225192522 15 69 0.0 0.0 0.00 0.00 0.00 70 1023.3
20180225192021 15 69 0.0 3.0 0.00 0.00 0.00 70 1023.5
20180225191521 15 69 0.0 3.0 0.00 0.00 0.00 69 1023.4
20180225191022 15 69 0.0 3.0 0.00 0.00 0.00 68 1023.4
20180225190524 15 69 0.0 3.0 0.00 0.00 0.00 68 1023.5
20180225190024 15 55 0.0 3.0 0.00 0.00 0.00 67 1023.3
20180225185521 16 55 0.0 0.0 0.00 0.00 0.00 68 1023.3
20180225185021 16 54 0.0 4.0 0.00 0.00 0.00 68 1023.3
20180225184522 16 54 0.0 4.0 0.00 0.00 0.00 67 1023.3
20180225184022 16 54 0.0 4.0 0.00 0.00 0.00 67 1023.4
20180225183525 16 53 0.0 4.0 0.00 0.00 0.00 67 1023.3
20180225183024 16 53 0.0 5.0 0.00 0.00 0.00 67 1023.3
20180225182523 17 53 0.0 5.0 0.00 0.00 0.00 67 1023.3
20180225182022 17 53 1.0 5.0 0.00 0.00 0.00 68 1023.3
20180225181522 17 53 1.0 3.0 0.00 0.00 0.00 68 1023.3
20180225181021 17 54 0.0 5.0 0.00 0.00 0.00 67 1023.3
20180225180525 17 54 0.0 5.0 0.00 0.00 0.00 67 1023.3
20180225180024 17 54 0.0 5.0 0.00 0.00 0.00 66 1023.3
20180225175524 17 54 1.0 5.0 0.00 0.00 0.00 66 1023.3
20180225175023 17 54 1.0 3.0 0.00 0.00 0.00 66 1023.2
20180225174526 17 54 1.0 3.0 0.00 0.00 0.00 66 1023.3
20180225174026 18 51 0.0 7.0 0.00 0.00 0.00 66 1023.3
20180225173528 18 51 0.0 7.0 0.00 0.00 0.00 67 1023.3
20180225173029 18 51 0.0 7.0 0.00 0.00 0.00 67 1023.3
20180225172526 18 51 0.0 7.0 0.00 0.00 0.00 66 1023.2
20180225172025 18 52 1.0 7.0 0.00 0.00 0.00 66 1023.2
20180225171526 18 56 2.0 10.0 0.00 0.00 0.00 65 1023.2
20180225171023 18 60 3.0 10.0 0.00 0.00 0.00 64 1023.1
20180225170529 19 71 4.0 12.0 0.00 0.00 0.00 64 1023.1
20180225170032 19 44 4.0 12.0 0.00 0.00 0.00 64 1023.0
20180225165523 19 63 4.0 12.0 0.00 0.00 0.00 64 1022.9
20180225165023 19 42 4.0 14.0 0.00 0.00 0.00 64 1022.9
20180225164527 19 36 5.0 14.0 0.00 0.00 0.00 64 1022.9
20180225164024 19 52 5.0 14.0 0.00 0.00 0.00 63 1022.9
20180225163527 20 51 4.0 11.0 0.00 0.00 0.00 63 1022.9
20180225163025 20 60 4.0 11.0 0.00 0.00 0.00 63 1022.8
20180225162525 20 55 4.0 15.0 0.00 0.00 0.00 63 1022.8
20180225162024 20 48 5.0 15.0 0.00 0.00 0.00 63 1022.8
20180225161526 20 56 6.0 15.0 0.00 0.00 0.00 63 1022.6
20180225161023 20 64 6.0 15.0 0.00 0.00 0.00 62 1022.6
20180225160527 21 59 6.0 21.0 0.00 0.00 0.00 62 1022.4
20180225160032 21 54 6.0 21.0 0.00 0.00 0.00 62 1022.4
20180225155523 21 38 7.0 21.0 0.00 0.00 0.00 61 1022.4
20180225155023 21 49 7.0 15.0 0.00 0.00 0.00 60 1022.4
20180225154526 21 53 7.0 15.0 0.00 0.00 0.00 60 1022.5
20180225154024 21 61 6.0 15.0 0.00 0.00 0.00 60 1022.4
20180225153526 21 53 6.0 17.0 0.00 0.00 0.00 61 1022.4
20180225153027 21 58 7.0 17.0 0.00 0.00 0.00 60 1022.4
20180225152525 21 59 9.0 17.0 0.00 0.00 0.00 60 1022.4
20180225152023 21 57 9.0 17.0 0.00 0.00 0.00 60 1022.4
20180225151524 21 44 9.0 18.0 0.00 0.00 0.00 60 1022.5
20180225151025 21 39 7.0 18.0 0.00 0.00 0.00 61 1022.4
20180225150527 22 81 8.0 20.0 0.00 0.00 0.00 61 1022.4
20180225150031 22 57 7.0 20.0 0.00 0.00 0.00 60 1022.4
20180225145523 22 56 6.0 20.0 0.00 0.00 0.00 61 1022.4
20180225145023 22 53 8.0 22.0 0.00 0.00 0.00 61 1022.4
20180225144526 21 57 10.0 22.0 0.00 0.00 0.00 60 1022.3
20180225144023 22 53 9.0 22.0 0.00 0.00 0.00 60 1022.3
20180225143527 22 94 8.0 19.0 0.00 0.00 0.00 60 1022.3
20180225143026 22 84 8.0 19.0 0.00 0.00 0.00 61 1022.3
20180225142526 22 35 8.0 18.0 0.00 0.00 0.00 60 1022.2
20180225142024 22 67 8.0 18.0 0.00 0.00 0.00 62 1022.2
20180225141525 21 69 9.0 18.0 0.00 0.00 0.00 60 1022.2
20180225141024 22 50 9.0 18.0 0.00 0.00 0.00 60 1022.3
20180225140527 22 132 8.0 19.0 0.00 0.00 0.00 60 1022.3
20180225140032 22 72 7.0 19.0 0.00 0.00 0.00 61 1022.3
20180225135524 22 30 8.0 19.0 0.00 0.00 0.00 60 1022.2
20180225135023 22 65 8.0 17.0 0.00 0.00 0.00 60 1022.2
20180225134525 22 35 8.0 14.0 0.00 0.00 0.00 60 1022.2
20180225134024 22 55 9.0 14.0 0.00 0.00 0.00 60 1022.2
20180225133526 22 60 7.0 19.0 0.00 0.00 0.00 59 1022.1
20180225133027 22 65 7.0 19.0 0.00 0.00 0.00 60 1022.2
20180225132524 22 49 7.0 19.0 0.00 0.00 0.00 61 1022.3
20180225132023 22 53 9.0 19.0 0.00 0.00 0.00 61 1022.3
20180225131525 22 51 8.0 19.0 0.00 0.00 0.00 60 1022.4
20180225131023 22 58 7.0 19.0 0.00 0.00 0.00 60 1022.4
20180225130526 22 74 7.0 19.0 0.00 0.00 0.00 61 1022.3
20180225130031 21 31 8.0 19.0 0.00 0.00 0.00 61 1022.3
20180225125525 21 94 9.0 19.0 0.00 0.00 0.00 59 1022.2
20180225125023 22 74 8.0 21.0 0.00 0.00 0.00 60 1022.3
20180225124526 21 45 8.0 19.0 0.00 0.00 0.00 62 1022.6
20180225124023 21 44 10.0 19.0 0.00 0.00 0.00 60 1022.6
20180225123526 21 58 9.0 19.0 0.00 0.00 0.00 59 1022.4
20180225123026 22 32 7.0 19.0 0.00 0.00 0.00 62 1022.6
20180225122526 21 60 8.0 19.0 0.00 0.00 0.00 61 1022.6
20180225122043 21 67 8.0 19.0 0.00 0.00 0.00 62 1022.5
20180225121524 21 88 9.0 19.0 0.00 0.00 0.00 63 1022.6
20180225121025 20 88 10.0 23.0 0.00 0.00 0.00 61 1022.6
20180225120528 21 43 9.0 23.0 0.00 0.00 0.00 61 1022.7
20180225120032 21 79 9.0 23.0 0.00 0.00 0.00 63 1022.6
20180225115524 20 57 11.0 24.0 0.00 0.00 0.00 62 1022.6
20180225115028 20 60 11.0 24.0 0.00 0.00 0.00 63 1022.6
20180225114532 20 51 11.0 24.0 0.00 0.00 0.00 63 1022.7
20180225114029 20 58 11.0 16.0 0.00 0.00 0.00 64 1022.8
20180225113530 20 59 10.0 16.0 0.00 0.00 0.00 65 1022.8
20180225113030 20 73 8.0 16.0 0.00 0.00 0.00 64 1022.8
20180225112528 20 67 8.0 21.0 0.00 0.00 0.00 65 1022.7
20180225112026 20 57 8.0 21.0 0.00 0.00 0.00 66 1022.8
20180225111525 20 71 8.0 24.0 0.00 0.00 0.00 66 1022.8
20180225111024 19 78 9.0 24.0 0.00 0.00 0.00 65 1022.8
20180225110529 19 60 9.0 22.0 0.00 0.00 0.00 67 1022.8
20180225110033 19 79 10.0 22.0 0.00 0.00 0.00 67 1023.0
20180225105523 19 58 11.0 22.0 0.00 0.00 0.00 67 1023.0
20180225105024 19 74 11.0 23.0 0.00 0.00 0.00 67 1023.0
20180225104527 19 63 10.0 23.0 0.00 0.00 0.00 68 1023.1
20180225104023 19 58 10.0 23.0 0.00 0.00 0.00 68 1023.1
20180225103526 18 30 10.0 17.0 0.00 0.00 0.00 69 1023.0
20180225103026 18 91 10.0 17.0 0.00 0.00 0.00 69 1023.1
20180225102524 19 54 8.0 17.0 0.00 0.00 0.00 69 1023.1
20180225102030 19 50 8.0 17.0 0.00 0.00 0.00 70 1023.1
20180225101527 18 42 9.0 17.0 0.00 0.00 0.00 70 1023.1
20180225101024 18 50 8.0 15.0 0.00 0.00 0.00 71 1023.1
20180225100529 18 53 6.0 19.0 0.00 0.00 0.00 72 1023.2
20180225100031 18 56 7.0 19.0 0.00 0.00 0.00 72 1023.1
20180225095524 18 46 8.0 19.0 0.00 0.00 0.00 72 1023.2
20180225095023 17 64 9.0 20.0 0.00 0.00 0.00 73 1023.2
20180225094529 17 53 8.0 19.0 0.00 0.00 0.00 73 1023.1
20180225094024 17 76 8.0 19.0 0.00 0.00 0.00 74 1023.1
20180225093526 17 67 8.0 17.0 0.00 0.00 0.00 73 1023.1
20180225093026 17 94 8.0 17.0 0.00 0.00 0.00 73 1023.1
20180225092525 17 74 8.0 22.0 0.00 0.00 0.00 73 1023.1
20180225091024 16 63 10.0 20.0 0.00 0.00 0.00 76 1023.0
20180225090527 16 55 9.0 14.0 0.00 0.00 0.00 77 1022.9
20180225090031 15 49 8.0 14.0 0.00 0.00 0.00 78 1022.9
20180225085525 15 53 6.0 14.0 0.00 0.00 0.00 79 1022.9
20180225085026 15 38 6.0 18.0 0.00 0.00 0.00 79 1022.9
20180225084526 14 44 6.0 20.0 0.00 0.00 0.00 80 1022.9
20180225084023 14 84 7.0 20.0 0.00 0.00 0.00 80 1022.9
20180225083526 14 59 9.0 20.0 0.00 0.00 0.00 80 1022.8
20180225083026 14 54 9.0 20.0 0.00 0.00 0.00 80 1022.7
20180225082526 13 51 8.0 20.0 0.00 0.00 0.00 80 1022.7
20180225082024 13 34 9.0 20.0 0.00 0.00 0.00 81 1022.7
20180225081527 13 49 9.0 20.0 0.00 0.00 0.00 81 1022.6
20180225081023 13 36 9.0 20.0 0.00 0.00 0.00 81 1022.7
20180225080527 13 52 9.0 17.0 0.00 0.00 0.00 81 1022.5
20180225080031 13 38 8.0 17.0 0.00 0.00 0.00 81 1022.5
20180225075523 13 70 8.0 17.0 0.00 0.00 0.00 82 1022.5
20180225075023 13 17 7.0 17.0 0.00 0.00 0.00 81 1022.4
20180225074526 13 46 8.0 17.0 0.00 0.00 0.00 82 1022.6
20180225074025 13 54 8.0 17.0 0.00 0.00 0.00 82 1022.4
20180225073526 13 51 7.0 15.0 0.00 0.00 0.00 82 1022.6
20180225073026 13 55 6.0 15.0 0.00 0.00 0.00 82 1022.5
20180225072525 13 49 7.0 17.0 0.00 0.00 0.00 82 1022.6
20180225072023 13 46 7.0 17.0 0.00 0.00 0.00 82 1022.4
20180225071525 13 51 7.0 17.0 0.00 0.00 0.00 82 1022.5
20180225071023 13 50 8.0 17.0 0.00 0.00 0.00 82 1022.4
20180225070529 13 51 7.0 15.0 0.00 0.00 0.00 82 1022.4
20180225070031 13 62 5.0 15.0 0.00 0.00 0.00 82 1022.5
20180225065524 13 52 6.0 15.0 0.00 0.00 0.00 82 1022.4
20180225065023 13 60 6.0 14.0 0.00 0.00 0.00 82 1022.4
20180225064539 13 53 7.0 13.0 0.00 0.00 0.00 82 1022.4
20180225064023 13 38 6.0 13.0 0.00 0.00 0.00 82 1022.4
20180225063528 13 47 5.0 15.0 0.00 0.00 0.00 82 1022.4
20180225063026 13 53 6.0 15.0 0.00 0.00 0.00 82 1022.3
20180225062524 13 61 6.0 14.0 0.00 0.00 0.00 82 1022.3
20180225062023 13 90 6.0 14.0 0.00 0.00 0.00 82 1022.2
20180225061525 13 68 6.0 19.0 0.00 0.00 0.00 82 1022.1
20180225061023 13 42 6.0 19.0 0.00 0.00 0.00 82 1022.1
20180225060529 13 53 6.0 19.0 0.00 0.00 0.00 82 1022.0
20180225060031 13 58 6.0 17.0 0.00 0.00 0.00 81 1022.0
20180225055524 13 69 6.0 17.0 0.00 0.00 0.00 81 1021.9
20180225055026 13 62 7.0 20.0 0.00 0.00 0.00 81 1022.1
20180225054528 13 350 7.0 20.0 0.00 0.00 0.00 81 1022.1
20180225054026 13 57 8.0 18.0 0.00 0.00 0.00 81 1022.0
20180225053527 13 82 8.0 18.0 0.00 0.00 0.00 81 1022.0
20180225053028 13 40 9.0 18.0 0.00 0.00 0.00 81 1021.9
20180225052528 14 58 9.0 14.0 0.00 0.00 0.00 80 1021.9
20180225052025 14 57 8.0 14.0 0.00 0.00 0.00 81 1022.1
20180225051526 14 55 7.0 18.0 0.00 0.00 0.00 80 1022.1
20180225051023 14 57 7.0 18.0 0.00 0.00 0.00 80 1022.1
20180225050528 14 55 8.0 21.0 0.00 0.00 0.00 80 1022.0
20180225050031 14 51 8.0 21.0 0.00 0.00 0.00 80 1022.0
20180225045524 14 67 10.0 21.0 0.00 0.00 0.00 80 1021.9
20180225045022 15 61 9.0 16.0 0.00 0.00 0.00 80 1021.9
20180225044526 15 57 8.0 16.0 0.00 0.00 0.00 79 1021.8
20180225044022 15 46 8.0 16.0 0.00 0.00 0.00 79 1021.8
20180225043526 15 53 7.0 18.0 0.00 0.00 0.00 79 1021.9
20180225043026 15 71 7.0 18.0 0.00 0.00 0.00 79 1021.9
20180225042526 15 77 7.0 15.0 0.00 0.00 0.00 79 1021.7
20180225042023 15 57 7.0 15.0 0.00 0.00 0.00 79 1021.9
20180225041525 15 82 7.0 15.0 0.00 0.00 0.00 79 1021.8
20180225041023 15 73 7.0 14.0 0.00 0.00 0.00 79 1021.8
20180225040527 15 97 7.0 14.0 0.00 0.00 0.00 79 1021.8
20180225040031 15 87 6.0 14.0 0.00 0.00 0.00 79 1021.7
20180225035523 15 82 6.0 14.0 0.00 0.00 0.00 79 1021.7
20180225035023 15 34 6.0 15.0 0.00 0.00 0.00 79 1021.7
20180225034524 15 76 7.0 15.0 0.00 0.00 0.00 79 1021.6
20180225034021 15 59 7.0 17.0 0.00 0.00 0.00 78 1021.6
20180225033523 15 57 7.0 17.0 0.00 0.00 0.00 78 1021.5
20180225033023 15 51 6.0 17.0 0.00 0.00 0.00 78 1021.4
20180225032521 15 49 7.0 17.0 0.00 0.00 0.00 78 1021.3
20180225032021 15 81 7.0 17.0 0.00 0.00 0.00 78 1021.3
20180225031521 15 73 7.0 19.0 0.00 0.00 0.00 78 1021.3
20180225031021 15 71 7.0 19.0 0.00 0.00 0.00 78 1021.3
20180225030525 15 55 8.0 19.0 0.00 0.00 0.00 78 1021.3
20180225030024 15 65 8.0 14.0 0.00 0.00 0.00 78 1021.3
20180225025521 15 95 6.0 15.0 0.00 0.00 0.00 78 1021.3
20180225025021 15 62 6.0 19.0 0.00 0.00 0.00 77 1021.3
20180225024524 15 78 6.0 19.0 0.00 0.00 0.00 77 1021.4
20180225024022 15 68 7.0 14.0 0.00 0.00 0.00 77 1021.3
20180225023521 15 94 8.0 14.0 0.00 0.00 0.00 77 1021.1
20180225023024 16 66 7.0 19.0 0.00 0.00 0.00 77 1021.2
20180225022521 16 62 7.0 19.0 0.00 0.00 0.00 77 1021.2
20180225022021 16 87 8.0 17.0 0.00 0.00 0.00 76 1021.3
20180225021522 16 31 7.0 15.0 0.00 0.00 0.00 76 1021.1
20180225021021 16 32 6.0 18.0 0.00 0.00 0.00 76 1021.3
20180225020526 16 65 7.0 18.0 0.00 0.00 0.00 76 1021.2
20180225020023 16 65 8.0 18.0 0.00 0.00 0.00 76 1021.3
20180225015520 16 53 8.0 20.0 0.00 0.00 0.00 76 1021.2
20180225015021 16 69 8.0 20.0 0.00 0.00 0.00 76 1021.3
20180225014523 16 81 8.0 20.0 0.00 0.00 0.00 75 1021.4